Date String (YYYY-MM-DD hh:mm:ss) UTC,Instrument flags,Ambient pressure (hPa),Sample flow (lpm),Bypass flow (lpm),Sample temperature (°C),Ambient temperature (°C),ASC tube jacket temperature (°C),LED temperature (°C),Box temperature (°C),Sample RH (%),Span deviation,Mass concentration (μg/m³),Mass concentration (μg/m³),Mass concentration (μg/m³)
DateTimeUTC,F1_M11,P_M11,Q1_M11,Q2_M11,T1_M11,T2_M11,T3_M11,T4_M11,T5_M11,U1_M11,ZSPAN_M11,X2_M11,X0_M11,X1_M11
2022-10-30 01:00:00,,0829.3,5.00,0.00,28.5,26.8,00.0,37.4,30.2,07.3,0000.0,0003.20,0007.98,0002.59
2022-10-30 01:01:00,,0829.2,5.00,0.00,28.5,26.8,00.0,37.4,30.2,07.4,0000.0,0003.21,0008.45,0002.61
2022-10-30 01:02:00,,0829.3,5.00,0.00,28.5,26.8,00.0,37.4,30.2,07.3,0000.0,0003.23,0008.55,0002.64
2022-10-30 01:03:00,,0829.2,5.00,0.00,28.5,26.8,00.0,37.4,30.2,07.2,0000.0,0003.24,0008.49,0002.67
2022-10-30 01:04:00,,0829.2,5.00,0.00,28.4,26.8,00.0,37.4,30.2,07.2,0000.0,0003.24,0008.42,0002.69
2022-10-30 01:05:00,,0829.3,5.00,0.00,28.4,26.7,00.0,37.3,30.1,07.2,0000.0,0003.22,0008.33,0002.71
2022-10-30 01:06:00,,0829.2,5.00,0.00,28.4,26.7,00.0,37.3,30.1,07.2,0000.0,0003.23,0008.39,0002.73
2022-10-30 01:07:00,,0829.2,5.00,0.00,28.4,26.7,00.0,37.3,30.1,07.2,0000.0,0003.24,0007.71,0002.74
2022-10-30 01:08:00,,0829.2,5.00,0.00,28.4,26.7,00.0,37.3,30.1,07.2,0000.0,0003.23,0007.39,0002.74
2022-10-30 01:09:00,,0829.2,5.00,0.00,28.4,26.6,00.0,37.3,30.1,07.2,0000.0,0003.21,0006.75,0002.74
2022-10-30 01:10:00,,0829.2,4.99,0.00,28.4,26.6,00.0,37.3,30.1,07.3,0000.0,0003.22,0006.26,0002.75
2022-10-30 01:11:00,,0829.2,5.00,0.00,28.4,26.6,00.0,37.3,30.1,07.3,0000.0,0003.22,0005.85,0002.77
2022-10-30 01:12:00,,0829.2,5.00,0.00,28.3,26.6,00.0,37.3,30.1,07.3,0000.0,0003.22,0005.38,0002.77
2022-10-30 01:13:00,,0829.2,4.99,0.00,28.3,26.6,00.0,37.3,30.0,07.4,0000.0,0003.21,0006.94,0002.76
2022-10-30 01:14:00,,0829.3,5.00,0.00,28.3,26.6,00.0,37.2,30.1,07.4,0000.0,0003.24,0008.10,0002.76
2022-10-30 01:15:00,,0829.2,5.00,0.00,28.3,26.6,00.0,37.2,30.1,07.5,0000.0,0003.25,0008.12,0002.75
2022-10-30 01:16:00,,0829.2,5.00,0.00,28.3,26.6,00.0,37.2,30.0,07.5,0000.0,0003.26,0008.23,0002.78
2022-10-30 01:17:00,,0829.2,4.99,0.00,28.3,26.5,00.0,37.2,30.0,07.5,0000.0,0003.27,0008.39,0002.78
2022-10-30 01:18:00,,0829.2,5.00,0.00,28.3,26.5,00.0,37.2,30.0,07.5,0000.0,0003.27,0008.35,0002.78
2022-10-30 01:19:00,,0829.2,5.00,0.00,28.3,26.6,00.0,37.2,30.0,07.5,0000.0,0003.26,0008.35,0002.78
2022-10-30 01:20:00,,0829.3,5.00,0.00,28.3,26.5,00.0,37.2,30.0,07.5,0000.0,0003.28,0008.90,0002.79
2022-10-30 01:21:00,,0829.2,5.00,0.00,28.3,26.5,00.0,37.2,30.0,07.5,0000.0,0003.26,0009.14,0002.78
2022-10-30 01:22:00,,0829.2,5.00,0.00,28.2,26.5,00.0,37.2,30.0,07.5,0000.0,0003.26,0009.12,0002.77
2022-10-30 01:23:00,,0829.2,5.00,0.00,28.2,26.5,00.0,37.2,29.9,07.5,0000.0,0003.26,0009.13,0002.77
2022-10-30 01:24:00,,0829.2,5.00,0.00,28.2,26.5,00.0,37.1,29.9,07.5,0000.0,0003.27,0008.16,0002.78
2022-10-30 01:25:00,,0829.2,5.00,0.00,28.2,26.5,00.0,37.1,30.0,07.5,0000.0,0003.25,0007.10,0002.78
2022-10-30 01:26:00,,0829.2,5.00,0.00,28.2,26.5,00.0,37.1,30.0,07.5,0000.0,0003.27,0007.07,0002.79
2022-10-30 01:27:00,,0829.2,5.00,0.00,28.2,26.5,00.0,37.1,29.9,07.5,0000.0,0003.29,0007.12,0002.77
2022-10-30 01:28:00,,0829.3,5.00,0.00,28.2,26.4,00.0,37.1,29.9,07.5,0000.0,0003.29,0006.80,0002.77
2022-10-30 01:29:00,,0829.2,5.00,0.00,28.2,26.4,00.0,37.1,29.9,07.6,0000.0,0003.27,0006.74,0002.76
2022-10-30 01:30:00,,0829.3,5.01,0.00,28.1,26.4,00.0,37.1,29.9,07.6,0000.0,0003.26,0006.75,0002.77
2022-10-30 01:31:00,,0829.3,5.00,0.00,28.1,26.4,00.0,37.1,29.9,07.6,0000.0,0003.27,0006.17,0002.78
2022-10-30 01:32:00,,0829.2,5.00,0.00,28.1,26.4,00.0,37.0,29.9,07.6,0000.0,0003.30,0006.17,0002.82
2022-10-30 01:33:00,,0829.2,5.00,0.00,28.1,26.4,00.0,37.0,29.8,07.6,0000.0,0003.31,0007.33,0002.83
2022-10-30 01:34:00,,0829.2,5.00,0.00,28.1,26.3,00.0,37.0,29.8,07.6,0000.0,0003.29,0007.36,0002.82
2022-10-30 01:35:00,,0829.3,4.99,0.00,28.1,26.3,00.0,37.0,29.8,07.6,0000.0,0003.28,0007.27,0002.82
2022-10-30 01:36:00,,0829.3,5.00,0.00,28.1,26.3,00.0,37.0,29.8,07.7,0000.0,0003.29,0007.32,0002.82
2022-10-30 01:37:00,,0829.2,5.00,0.00,28.1,26.4,00.0,37.0,29.9,07.6,0000.0,0003.29,0007.41,0002.83
2022-10-30 01:38:00,,0829.2,5.00,0.00,28.1,26.3,00.0,37.0,29.8,07.6,0000.0,0003.29,0007.34,0002.85
2022-10-30 01:39:00,,0829.3,5.00,0.00,28.1,26.3,00.0,37.0,29.8,07.7,0000.0,0003.30,0007.33,0002.87
2022-10-30 01:40:00,,0829.3,5.00,0.00,28.1,26.3,00.0,37.0,29.8,07.7,0000.0,0003.34,0007.42,0002.88
2022-10-30 01:41:00,,0829.3,5.00,0.00,28.1,26.3,00.0,37.0,29.8,07.7,0000.0,0003.37,0007.45,0002.89
2022-10-30 01:42:00,,0829.3,5.00,0.00,28.0,26.3,00.0,37.0,29.7,07.7,0000.0,0003.37,0007.45,0002.90
2022-10-30 01:43:00,,0829.3,4.99,0.00,28.0,26.3,00.0,36.9,29.7,07.7,0000.0,0003.35,0007.16,0002.88
2022-10-30 01:44:00,,0829.3,5.00,0.00,28.0,26.2,00.0,36.9,29.7,07.7,0000.0,0003.35,0006.46,0002.88
2022-10-30 01:45:00,,0829.2,5.00,0.00,28.0,26.2,00.0,36.9,29.7,07.7,0000.0,0003.36,0006.20,0002.90
2022-10-30 01:46:00,,0829.2,5.02,0.00,28.0,26.2,00.0,36.9,29.7,07.7,0000.0,0003.37,0006.27,0002.92
2022-10-30 01:47:00,,0829.2,5.00,0.00,28.0,26.2,00.0,36.9,29.8,07.7,0000.0,0003.38,0006.48,0002.94
2022-10-30 01:48:00,,0829.3,5.00,0.00,28.0,26.2,00.0,36.9,29.7,07.7,0000.0,0003.37,0006.16,0002.96
2022-10-30 01:49:00,,0829.2,5.00,0.00,28.0,26.2,00.0,36.9,29.7,07.7,0000.0,0003.37,0006.17,0002.99
2022-10-30 01:50:00,,0829.3,5.00,0.00,27.9,26.2,00.0,36.9,29.7,07.6,0000.0,0003.40,0006.42,0003.01
2022-10-30 01:51:00,,0829.2,5.00,0.00,27.9,26.2,00.0,36.9,29.7,07.6,0000.0,0003.41,0006.34,0003.04
2022-10-30 01:52:00,,0829.3,5.00,0.00,27.9,26.2,00.0,36.9,29.7,07.6,0000.0,0003.43,0006.56,0003.07
2022-10-30 01:53:00,,0829.2,5.00,0.00,27.9,26.2,00.0,36.8,29.6,07.6,0000.0,0003.44,0006.63,0003.09
2022-10-30 01:54:00,,0829.3,4.98,0.00,27.9,26.1,00.0,36.8,29.6,07.6,0000.0,0003.44,0006.29,0003.12
2022-10-30 01:55:00,,0829.2,5.02,0.00,27.9,26.1,00.0,36.8,29.6,07.6,0000.0,0003.45,0005.98,0003.13
2022-10-30 01:56:00,,0829.2,5.00,0.00,27.9,26.1,00.0,36.8,29.5,07.6,0000.0,0003.45,0005.97,0003.14
2022-10-30 01:57:00,,0829.2,5.00,0.00,27.9,26.1,00.0,36.8,29.5,07.6,0000.0,0003.45,0005.85,0003.14
2022-10-30 01:58:00,,0829.2,5.00,0.00,27.8,26.1,00.0,36.8,29.5,07.6,0000.0,0003.44,0005.52,0003.15
2022-10-30 01:59:00,,0829.2,5.01,0.00,27.8,26.1,00.0,36.8,29.5,07.6,0000.0,0003.46,0005.66,0003.16
